Location: Killam
(52.7910°N, 111.8608°W)
Time: 12:47:01
(UTC+00:00)

ISS - Pass Details

Date: 24 January 2026
Orbit: 413 x 428 km, 51.6° (Epoch: 18 February)

Event Time Altitude Azimuth Distance (km) Brightness Sun altitude
Rises 01:24:24 0° 274° (W) 2,363 1.6 -13.0°
Reaches altitude 10° 01:26:30 10° 272° (W) 1,502 0.3 -13.3°
Maximum altitude 01:29:50 67° 189° (S) 460 -3.5 -13.8°
Enters shadow 01:31:47 23° 111° (ESE) 952 -2.4 -14.1°
